Date String (YYYY-MM-DD hh:mm:ss) UTC,Instrument flags,Ambient pressure (hPa),Sample flow (lpm),Bypass flow (lpm),Sample temperature (°C),Ambient temperature (°C),ASC tube jacket temperature (°C),LED temperature (°C),Box temperature (°C),Sample RH (%),Span deviation,Mass concentration (μg/m³),Mass concentration (μg/m³),Mass concentration (μg/m³)
DateTimeUTC,F1_M11,P_M11,Q1_M11,Q2_M11,T1_M11,T2_M11,T3_M11,T4_M11,T5_M11,U1_M11,ZSPAN_M11,X0_M11,X2_M11,X1_M11
2021-12-09 08:00:00,,0813.3,5.01,0.00,22.1,21.3,00.0,31.3,23.8,15.2,0000.0,0002.18,0000.59,0000.32
2021-12-09 08:01:00,,0813.3,5.00,0.00,22.1,21.3,00.0,31.3,23.8,15.3,0000.0,0002.41,0000.57,0000.31
2021-12-09 08:02:00,,0813.3,4.99,0.00,22.1,21.2,00.0,31.3,23.7,15.4,0000.0,0002.91,0000.52,0000.31
2021-12-09 08:03:00,,0813.3,5.00,0.00,22.1,21.2,00.0,31.2,23.8,15.5,0000.0,0003.37,0000.53,0000.30
2021-12-09 08:04:00,,0813.2,4.99,0.00,22.1,21.2,00.0,31.2,23.8,15.5,0000.0,0003.32,0000.47,0000.29
2021-12-09 08:05:00,,0813.3,4.99,0.00,22.1,21.2,00.0,31.2,23.8,15.5,0000.0,0003.30,0000.47,0000.29
2021-12-09 08:06:00,,0813.3,5.01,0.00,22.1,21.2,00.0,31.2,23.8,15.4,0000.0,0003.36,0000.49,0000.29
2021-12-09 08:07:00,,0813.4,4.99,0.00,22.1,21.2,00.0,31.2,23.8,15.5,0000.0,0003.32,0000.50,0000.28
2021-12-09 08:08:00,,0813.4,5.00,0.00,22.1,21.2,00.0,31.2,23.7,15.6,0000.0,0003.40,0000.51,0000.28
2021-12-09 08:09:00,,0813.5,5.00,0.00,22.1,21.2,00.0,31.2,23.7,15.6,0000.0,0003.36,0000.50,0000.28
2021-12-09 08:10:00,,0813.6,5.00,0.00,22.2,21.8,00.0,31.2,24.0,15.6,0000.0,0003.42,0000.53,0000.28
2021-12-09 08:11:00,,0813.5,4.99,0.00,22.3,22.6,00.0,31.3,24.3,15.5,0000.0,0002.57,0000.52,0000.28
2021-12-09 08:12:00,,0813.6,5.00,0.00,22.4,23.2,00.0,31.3,24.5,15.5,0000.0,0002.37,0000.51,0000.28
2021-12-09 08:13:00,,0813.6,5.01,0.00,22.5,23.1,00.0,31.3,24.5,15.5,0000.0,0002.09,0000.51,0000.29
2021-12-09 08:14:00,,0813.6,4.99,0.00,22.5,22.8,00.0,31.4,24.5,15.6,0000.0,0001.59,0000.48,0000.28
2021-12-09 08:15:00,,0813.6,5.00,0.00,22.5,22.6,00.0,31.4,24.4,15.5,0000.0,0001.48,0000.48,0000.28
2021-12-09 08:16:00,,0814.0,5.00,0.00,22.5,22.5,00.0,31.4,24.3,15.6,0000.0,0001.57,0000.50,0000.28
2021-12-09 08:17:00,,0814.2,5.01,0.00,22.5,22.3,00.0,31.4,24.3,15.6,0000.0,0001.58,0000.49,0000.28
2021-12-09 08:18:00,,0814.2,5.01,0.00,22.5,22.3,00.0,31.4,24.2,15.7,0000.0,0001.55,0000.48,0000.28
2021-12-09 08:19:00,,0814.2,4.98,0.00,22.5,22.2,00.0,31.4,24.2,15.7,0000.0,0001.43,0000.45,0000.28
2021-12-09 08:20:00,,0814.2,5.00,0.00,22.5,22.1,00.0,31.4,24.2,15.7,0000.0,0001.47,0000.44,0000.29
2021-12-09 08:21:00,,0814.4,5.00,0.00,22.5,22.0,00.0,31.5,24.2,15.7,0000.0,0001.39,0000.40,0000.28
2021-12-09 08:22:00,,0813.9,5.00,0.00,22.5,21.9,00.0,31.5,24.2,15.8,0000.0,0001.39,0000.40,0000.28
2021-12-09 08:23:00,,0813.8,5.00,0.00,22.5,21.9,00.0,31.5,24.2,15.8,0000.0,0001.25,0000.40,0000.27
2021-12-09 08:24:00,,0813.8,5.01,0.00,22.5,21.8,00.0,31.5,24.2,15.8,0000.0,0000.89,0000.39,0000.27
2021-12-09 08:25:00,,0813.9,4.99,0.00,22.5,21.8,00.0,31.5,24.1,15.9,0000.0,0000.85,0000.38,0000.26
2021-12-09 08:26:00,,0813.9,5.02,0.00,22.5,21.8,00.0,31.5,24.2,15.9,0000.0,0000.79,0000.36,0000.26
2021-12-09 08:27:00,,0813.9,4.99,0.00,22.5,21.7,00.0,31.5,24.1,15.9,0000.0,0000.66,0000.33,0000.25
2021-12-09 08:28:00,,0813.9,5.00,0.00,22.5,21.7,00.0,31.5,24.1,15.9,0000.0,0000.61,0000.32,0000.25
2021-12-09 08:29:00,,0814.1,5.01,0.00,22.5,21.7,00.0,31.5,24.2,16.0,0000.0,0000.54,0000.29,0000.24
2021-12-09 08:30:00,,0814.1,4.99,0.00,22.5,21.6,00.0,31.5,24.1,16.0,0000.0,0000.49,0000.28,0000.24
2021-12-09 08:31:00,,0814.1,5.01,0.00,22.5,21.6,00.0,31.5,24.2,16.0,0000.0,0000.63,0000.29,0000.23
2021-12-09 08:32:00,,0814.2,5.00,0.00,22.5,21.7,00.0,31.5,24.2,16.1,0000.0,0000.77,0000.30,0000.23
2021-12-09 08:33:00,,0814.0,5.01,0.00,22.5,21.7,00.0,31.5,24.1,16.0,0000.0,0000.77,0000.29,0000.23
2021-12-09 08:34:00,,0814.0,4.99,0.00,22.5,21.7,00.0,31.5,24.1,16.0,0000.0,0000.83,0000.32,0000.24
2021-12-09 08:35:00,,0814.0,5.01,0.00,22.5,21.7,00.0,31.5,24.2,16.0,0000.0,0000.82,0000.32,0000.23
2021-12-09 08:36:00,,0814.1,5.00,0.00,22.5,21.7,00.0,31.5,24.1,16.0,0000.0,0000.82,0000.31,0000.23
2021-12-09 08:37:00,,0814.1,5.01,0.00,22.5,21.7,00.0,31.5,24.1,16.0,0000.0,0000.94,0000.34,0000.24
2021-12-09 08:38:00,,0814.1,4.99,0.00,22.5,21.7,00.0,31.5,24.2,16.0,0000.0,0001.05,0000.37,0000.25
2021-12-09 08:39:00,,0814.1,4.99,0.00,22.5,21.6,00.0,31.5,24.2,15.8,0000.0,0001.10,0000.39,0000.25
2021-12-09 08:40:00,,0814.1,4.99,0.00,22.5,21.6,00.0,31.5,24.2,15.5,0000.0,0001.21,0000.44,0000.26
2021-12-09 08:41:00,,0814.0,5.01,0.00,22.5,21.7,00.0,31.5,24.2,15.6,0000.0,0001.37,0000.47,0000.26
2021-12-09 08:42:00,,0814.1,5.01,0.00,22.5,21.7,00.0,31.5,24.2,15.6,0000.0,0001.23,0000.47,0000.26
2021-12-09 08:43:00,,0814.1,4.99,0.00,22.5,21.7,00.0,31.5,24.2,15.4,0000.0,0001.12,0000.50,0000.26
2021-12-09 08:44:00,,0814.1,5.01,0.00,22.5,21.7,00.0,31.5,24.2,15.4,0000.0,0001.18,0000.52,0000.26
2021-12-09 08:45:00,,0814.3,5.00,0.00,22.5,21.7,00.0,31.5,24.2,15.4,0000.0,0001.15,0000.50,0000.26
2021-12-09 08:46:00,,0814.1,5.00,0.00,22.5,21.7,00.0,31.5,24.2,15.4,0000.0,0001.16,0000.50,0000.25
2021-12-09 08:47:00,,0814.2,5.02,0.00,22.5,21.7,00.0,31.6,24.3,15.4,0000.0,0001.22,0000.52,0000.25
2021-12-09 08:48:00,,0814.0,4.99,0.00,22.6,21.7,00.0,31.6,24.3,15.3,0000.0,0001.21,0000.52,0000.25
2021-12-09 08:49:00,,0814.2,5.00,0.00,22.6,21.8,00.0,31.6,24.3,15.3,0000.0,0001.07,0000.50,0000.25
2021-12-09 08:50:00,,0814.0,5.00,0.00,22.6,21.8,00.0,31.6,24.3,15.3,0000.0,0001.08,0000.50,0000.26
2021-12-09 08:51:00,,0814.0,5.00,0.00,22.6,21.8,00.0,31.6,24.3,15.3,0000.0,0001.01,0000.47,0000.26
2021-12-09 08:52:00,,0814.1,5.01,0.00,22.6,21.8,00.0,31.6,24.3,15.3,0000.0,0000.87,0000.45,0000.25
2021-12-09 08:53:00,,0814.0,4.99,0.00,22.6,21.8,00.0,31.6,24.4,15.3,0000.0,0001.11,0000.47,0000.25
2021-12-09 08:54:00,,0814.1,5.00,0.00,22.6,21.8,00.0,31.6,24.3,15.3,0000.0,0001.16,0000.47,0000.25
2021-12-09 08:55:00,,0814.1,5.00,0.00,22.6,21.8,00.0,31.6,24.3,15.5,0000.0,0001.12,0000.45,0000.25
2021-12-09 08:56:00,,0814.0,5.00,0.00,22.6,21.8,00.0,31.6,24.4,15.6,0000.0,0001.13,0000.47,0000.26
2021-12-09 08:57:00,,0814.1,5.00,0.00,22.6,21.8,00.0,31.6,24.4,15.5,0000.0,0001.21,0000.51,0000.27
2021-12-09 08:58:00,,0814.2,5.00,0.00,22.6,21.8,00.0,31.6,24.3,15.5,0000.0,0001.35,0000.52,0000.28
2021-12-09 08:59:00,,0814.0,4.99,0.00,22.6,21.8,00.0,31.6,24.3,15.4,0000.0,0001.44,0000.53,0000.28
